EW6063 Weather Reports


Display with metric or nautical units.
time (UTC)temp
F
wind
direction
speed
MPH
gust
MPH
rain 1hr
in
rain 24hr
in
rain mn
in
humidity
%
barometer
mb
20260505125011 60 22 1.0 4.0 0.00 0.42 0.42 94 1005.1
20260505124510 60 22 1.0 4.0 0.00 0.42 0.42 94 1004.7
20260505124010 60 22 1.0 3.0 0.00 0.42 0.42 94 1004.6
20260505123510 60 22 1.0 3.0 0.00 0.42 0.42 94 1004.5
20260505123009 60 22 0.0 2.0 0.00 0.42 0.42 94 1004.6
20260505122509 60 22 0.0 3.0 0.00 0.42 0.42 94 1004.5
20260505122008 60 22 1.0 3.0 0.00 0.42 0.42 94 1004.5
20260505121510 60 22 0.0 1.0 0.00 0.42 0.42 94 1004.5
20260505121009 60 22 0.0 2.0 0.00 0.42 0.42 94 1004.4
20260505120507 60 22 0.0 2.0 0.00 0.42 0.42 94 1004.3
20260505120026 60 22 0.0 2.0 0.00 0.42 0.42 94 1004.2
20260505115507 60 22 0.0 3.0 0.00 0.42 0.42 94 1004.1
20260505115007 60 22 1.0 3.0 0.00 0.42 0.42 94 1003.9
20260505114508 60 22 0.0 1.0 0.00 0.42 0.42 94 1003.8
20260505114007 60 22 0.0 3.0 0.00 0.42 0.42 94 1003.8
20260505113506 60 22 0.0 3.0 0.00 0.42 0.42 94 1003.9
20260505113005 60 34 1.0 3.0 0.00 0.42 0.42 94 1003.9
20260505112505 60 35 1.0 3.0 0.00 0.42 0.42 94 1003.8
20260505112005 60 18 0.0 3.0 0.00 0.42 0.42 94 1003.9
20260505111506 60 18 0.0 3.0 0.00 0.42 0.42 94 1003.7
20260505111009 60 18 1.0 5.0 0.00 0.42 0.42 94 1003.7
20260505110507 60 19 2.0 5.0 0.00 0.42 0.42 94 1003.8
20260505102003 61 360 1.0 3.0 0.00 0.42 0.42 94 1003.4
20260505101504 61 360 0.0 4.0 0.00 0.42 0.42 94 1003.4
20260505101002 61 360 2.0 4.0 0.00 0.42 0.42 94 1003.5
20260505100502 61 136 0.0 3.0 0.00 0.42 0.42 93 1003.4
20260505100002 61 136 0.0 0.0 0.00 0.42 0.42 93 1003.3
20260505095100 61 136 0.0 0.0 0.00 0.42 0.42 94 1003.3
20260505094559 61 136 0.0 0.0 0.00 0.42 0.42 93 1003.3
20260505094059 61 136 0.0 0.0 0.00 0.42 0.42 93 1003.2
20260505093559 61 136 0.0 0.0 0.00 0.42 0.42 93 1003.3
20260505093059 61 136 0.0 0.0 0.00 0.42 0.42 93 1003.3
20260505092558 61 136 0.0 0.0 0.00 0.42 0.42 93 1003.4
20260505092058 61 136 0.0 0.0 0.00 0.42 0.42 93 1003.4
20260505091605 61 136 0.0 0.0 0.00 0.42 0.42 93 1003.7
20260505091059 61 136 0.0 0.0 0.00 0.42 0.42 93 1004.0
20260505090557 61 136 0.0 0.0 0.00 0.42 0.42 93 1004.0
20260505090056 61 136 0.0 0.0 0.00 0.42 0.42 93 1004.1
20260505085556 61 136 0.0 0.0 0.00 0.42 0.42 93 1004.2
20260505085055 61 136 0.0 0.0 0.00 0.42 0.42 93 1004.3
20260505084556 61 136 0.0 0.0 0.00 0.42 0.42 93 1004.2
20260505084055 61 136 0.0 0.0 0.00 0.42 0.42 93 1004.0
20260505083555 61 136 0.0 0.0 0.00 0.42 0.42 92 1003.8
20260505083055 61 136 0.0 0.0 0.00 0.42 0.42 92 1003.7
20260505082555 61 136 0.0 0.0 0.00 0.42 0.42 93 1003.5
20260505082055 61 136 0.0 0.0 0.00 0.42 0.42 92 1003.8
20260505081554 61 136 0.0 0.0 0.00 0.42 0.42 92 1003.8
20260505081054 61 136 0.0 1.0 0.00 0.42 0.42 92 1003.8
20260505080555 61 136 0.0 1.0 0.00 0.42 0.42 92 1003.6
20260505080054 61 136 0.0 1.0 0.00 0.42 0.42 92 1003.6
20260505075553 61 136 0.0 2.0 0.02 0.42 0.42 92 1003.0
20260505075052 61 136 0.0 2.0 0.08 0.42 0.42 91 1004.2
20260505074558 62 136 1.0 2.0 0.14 0.42 0.42 91 1004.5
20260505074051 62 136 1.0 3.0 0.20 0.42 0.42 91 1004.8
20260505073552 62 138 1.0 3.0 0.26 0.42 0.42 91 1005.3
20260505073103 62 138 0.0 1.0 0.32 0.42 0.42 91 1004.9
20260505072549 62 138 0.0 1.0 0.37 0.42 0.42 91 1004.3
20260505072048 62 138 0.0 1.0 0.40 0.42 0.42 90 1004.8
20260505071553 62 138 0.0 0.0 0.41 0.42 0.42 90 1005.2
20260505071047 62 138 0.0 0.0 0.42 0.42 0.42 90 1005.7
20260505070547 62 138 0.0 0.0 0.42 0.42 0.42 90 1005.7
20260505070047 62 138 0.0 1.0 0.42 0.42 0.42 89 1005.9
20260505065546 62 138 0.0 1.0 0.39 0.39 0.39 89 1005.7
20260505065047 63 138 0.0 2.0 0.34 0.34 0.34 89 1006.4
20260505064546 63 138 0.0 7.0 0.28 0.28 0.28 89 1006.5
20260505064044 63 138 1.0 7.0 0.22 0.22 0.22 88 1006.9
20260505063543 63 141 0.0 3.0 0.16 0.16 0.16 87 1007.1
20260505063042 63 141 0.0 4.0 0.10 0.10 0.10 87 1006.6
20260505062541 64 141 2.0 6.0 0.04 0.04 0.04 86 1006.7
20260505062039 64 161 1.0 6.0 0.02 0.02 0.02 84 1006.7
20260505061549 65 23 1.0 3.0 0.00 0.00 0.00 83 1006.7
20260505061036 65 20 0.0 3.0 0.00 0.00 0.00 82 1005.8
20260505060535 66 20 1.0 3.0 0.00 0.00 0.00 81 1004.9
20260505060036 66 169 2.0 3.0 0.00 0.00 0.00 80 1004.4
20260505055533 66 169 0.0 2.0 0.00 0.00 0.00 79 1004.9
20260505055032 66 169 0.0 5.0 0.00 0.00 0.00 78 1004.8
20260505054554 67 169 1.0 5.0 0.00 0.00 0.00 77 1004.2
20260505054030 67 169 1.0 2.0 0.00 0.00 0.00 77 1004.1
20260505053530 68 179 0.0 2.0 0.00 0.00 0.00 75 1004.7
20260505053031 68 179 0.0 2.0 0.00 0.00 0.00 72 1004.6
20260505052525 68 179 0.0 2.0 0.00 0.00 0.00 71 1004.0
20260505052023 68 179 0.0 2.0 0.00 0.00 0.00 71 1003.5
20260505051525 68 179 0.0 2.0 0.00 0.00 0.00 71 1003.6
20260505051023 68 179 0.0 2.0 0.00 0.00 0.00 71 1003.8
20260505050519 68 179 0.0 2.0 0.00 0.00 0.00 71 1003.9
20260505041516 67 167 0.0 2.0 0.00 0.00 0.00 72 1004.0
20260505041016 67 167 0.0 2.0 0.00 0.00 0.00 72 1003.9
20260505040516 67 167 0.0 2.0 0.00 0.00 0.00 72 1004.1
20260505040016 67 167 0.0 0.0 0.00 0.00 0.00 72 1004.0
20260505035515 68 167 0.0 0.0 0.00 0.00 0.00 72 1004.1
20260505035015 68 167 0.0 0.0 0.00 0.00 0.00 71 1004.4
20260505034514 68 167 0.0 0.0 0.00 0.00 0.00 71 1004.5
20260505034018 68 167 0.0 0.0 0.00 0.00 0.00 71 1004.7
20260505033514 68 168 0.0 0.0 0.00 0.00 0.00 71 1004.6
20260505033013 68 167 0.0 0.0 0.00 0.00 0.00 71 1004.5
20260505032513 68 167 0.0 1.0 0.00 0.00 0.00 71 1004.5
20260505032012 68 167 0.0 1.0 0.00 0.00 0.00 70 1004.5
20260505031531 68 167 0.0 1.0 0.00 0.00 0.00 70 1004.6
20260505031012 68 167 0.0 1.0 0.00 0.00 0.00 70 1004.7
20260505030512 68 167 0.0 1.0 0.00 0.00 0.00 69 1004.7
20260505030014 69 167 0.0 1.0 0.00 0.00 0.00 69 1004.8
20260505025512 69 167 0.0 1.0 0.00 0.00 0.00 69 1004.7
20260505025014 69 167 0.0 1.0 0.00 0.00 0.00 69 1004.7
20260505024520 69 167 0.0 1.0 0.00 0.00 0.00 69 1004.7
20260505024011 69 167 0.0 1.0 0.00 0.00 0.00 68 1004.6
20260505023511 69 167 0.0 1.0 0.00 0.00 0.00 68 1004.5
20260505023012 69 167 0.0 1.0 0.00 0.00 0.00 68 1004.3
20260505022510 69 167 0.0 1.0 0.00 0.00 0.00 67 1004.3
20260505022011 70 167 0.0 1.0 0.00 0.00 0.00 67 1004.3
20260505021516 70 167 0.0 1.0 0.00 0.00 0.00 66 1004.4
20260505021012 70 167 0.0 1.0 0.00 0.00 0.00 66 1004.3
20260505020510 70 167 0.0 1.0 0.00 0.00 0.00 65 1004.3
20260505020024 70 167 0.0 1.0 0.00 0.00 0.00 65 1004.2
20260505015513 70 167 0.0 2.0 0.00 0.00 0.00 65 1004.2
20260505015009 71 167 0.0 3.0 0.00 0.00 0.00 64 1004.2
20260505014509 71 167 1.0 3.0 0.00 0.00 0.00 63 1004.0
20260505014012 71 167 0.0 2.0 0.00 0.00 0.00 63 1004.1
20260505013514 71 167 0.0 2.0 0.00 0.00 0.00 63 1004.1
20260505013008 71 167 0.0 2.0 0.00 0.00 0.00 62 1004.0
20260505012508 72 167 0.0 2.0 0.00 0.00 0.00 62 1004.0
20260505012008 72 167 1.0 2.0 0.00 0.00 0.00 62 1004.0
20260505011509 72 167 0.0 1.0 0.00 0.00 0.00 61 1004.1
20260505011006 72 167 0.0 1.0 0.00 0.00 0.00 61 1004.0
20260505010508 72 167 0.0 2.0 0.00 0.00 0.00 61 1004.1
20260505010006 72 167 0.0 2.0 0.00 0.00 0.00 60 1004.1
20260505005506 73 167 0.0 2.0 0.00 0.00 0.00 60 1004.0
20260505005007 73 167 0.0 3.0 0.00 0.00 0.00 60 1003.9
20260505004512 73 167 1.0 3.0 0.00 0.00 0.00 60 1003.9
20260505004005 73 166 1.0 3.0 0.00 0.00 0.00 59 1003.8
20260505003505 73 166 2.0 3.0 0.00 0.00 0.00 59 1003.8
20260505003004 74 161 1.0 3.0 0.00 0.00 0.00 59 1003.7
20260505002507 74 188 1.0 4.0 0.00 0.00 0.00 58 1003.7
20260505002007 74 168 2.0 5.0 0.00 0.00 0.00 58 1003.8
20260505001504 74 163 1.0 5.0 0.00 0.00 0.00 58 1003.7
20260505001007 75 155 2.0 6.0 0.00 0.00 0.00 58 1003.7
20260505000503 75 166 2.0 5.0 0.00 0.00 0.00 56 1003.7
20260505000007 75 178 2.0 5.0 0.00 0.00 0.00 56 1003.7
20260504235503 75 186 1.0 4.0 0.00 0.00 0.00 56 1003.7
20260504235003 76 157 2.0 4.0 0.00 0.00 0.00 55 1003.6
20260504234503 76 186 1.0 4.0 0.00 0.00 0.00 56 1003.6
20260504234002 76 170 2.0 4.0 0.00 0.00 0.00 56 1003.6
20260504233502 76 165 1.0 3.0 0.00 0.00 0.00 58 1003.6
20260504233001 76 167 1.0 5.0 0.00 0.00 0.00 56 1003.7
20260504232502 76 167 2.0 5.0 0.00 0.00 0.00 54 1003.5
20260504232000 77 206 1.0 5.0 0.00 0.00 0.00 54 1003.5
20260504231500 77 166 1.0 5.0 0.00 0.00 0.00 54 1003.5
20260504231000 77 174 3.0 7.0 0.00 0.00 0.00 55 1003.5
20260504230601 77 164 2.0 7.0 0.00 0.00 0.00 54 1003.5
20260504230109 77 171 1.0 3.0 0.00 0.00 0.00 55 1003.5
20260504225600 77 173 1.0 5.0 0.00 0.00 0.00 53 1003.4
20260504225101 77 159 1.0 5.0 0.00 0.00 0.00 54 1003.4
20260504224600 77 171 1.0 5.0 0.00 0.00 0.00 53 1003.3
20260504224101 77 207 1.0 5.0 0.00 0.00 0.00 53 1003.3
20260504223559 77 205 2.0 5.0 0.00 0.00 0.00 53 1003.3
20260504223105 77 161 1.0 5.0 0.00 0.00 0.00 53 1003.2
20260504222558 78 189 1.0 7.0 0.00 0.00 0.00 53 1003.2
20260504222058 78 167 3.0 7.0 0.00 0.00 0.00 52 1003.2
20260504221605 78 201 1.0 6.0 0.00 0.00 0.00 54 1003.2
20260504221057 78 176 2.0 6.0 0.00 0.00 0.00 52 1003.2
20260504220557 78 161 2.0 5.0 0.00 0.00 0.00 53 1003.2
20260504220101 79 203 2.0 6.0 0.00 0.00 0.00 52 1003.3
20260504215559 79 176 3.0 6.0 0.00 0.00 0.00 51 1003.2
20260504215057 79 173 2.0 5.0 0.00 0.00 0.00 51 1003.3
20260504214558 80 155 3.0 5.0 0.00 0.00 0.00 53 1003.4
20260504214056 80 165 2.0 5.0 0.00 0.00 0.00 54 1003.3
20260504213556 80 200 2.0 5.0 0.00 0.00 0.00 51 1003.3
20260504213055 80 128 2.0 5.0 0.00 0.00 0.00 51 1003.4
20260504212554 80 165 3.0 5.0 0.00 0.00 0.00 52 1003.4
20260504212058 80 176 2.0 8.0 0.00 0.00 0.00 52 1003.4
20260504211553 80 182 3.0 8.0 0.00 0.00 0.00 51 1003.5
20260504211053 80 169 2.0 4.0 0.00 0.00 0.00 51 1003.6
20260504210555 80 159 2.0 5.0 0.00 0.00 0.00 51 1003.6
20260504210055 80 196 2.0 5.0 0.00 0.00 0.00 51 1003.7
20260504205552 80 178 3.0 5.0 0.00 0.00 0.00 51 1003.7
20260504205052 81 192 3.0 5.0 0.00 0.00 0.00 51 1003.8
20260504204555 81 157 2.0 8.0 0.00 0.00 0.00 52 1003.9
20260504204050 81 175 3.0 8.0 0.00 0.00 0.00 50 1003.9
20260504203553 81 199 3.0 6.0 0.00 0.00 0.00 54 1004.0
20260504203100 80 193 1.0 7.0 0.00 0.00 0.00 53 1004.0
20260504202548 80 173 1.0 9.0 0.00 0.00 0.00 52 1004.0
20260504202048 80 179 4.0 9.0 0.00 0.00 0.00 49 1004.1
20260504201548 80 182 4.0 10.0 0.00 0.00 0.00 49 1004.2
20260504201045 80 159 5.0 10.0 0.00 0.00 0.00 49 1004.3
20260504200545 80 174 3.0 9.0 0.00 0.00 0.00 51 1004.4
20260504200044 80 145 3.0 9.0 0.00 0.00 0.00 50 1004.5
20260504195542 80 182 2.0 6.0 0.00 0.00 0.00 51 1004.6
20260504195042 80 184 3.0 7.0 0.00 0.00 0.00 51 1004.7
20260504194542 80 169 3.0 7.0 0.00 0.00 0.00 50 1004.8
20260504194043 80 174 3.0 9.0 0.00 0.00 0.00 50 1004.8
20260504193542 80 188 4.0 9.0 0.00 0.00 0.00 51 1004.9
20260504193041 80 159 3.0 6.0 0.00 0.00 0.00 50 1004.9
20260504192539 80 169 3.0 7.0 0.00 0.00 0.00 52 1004.9
20260504192038 79 223 1.0 7.0 0.00 0.00 0.00 52 1004.9
20260504191541 79 172 3.0 8.0 0.00 0.00 0.00 52 1004.9
20260504191040 79 175 3.0 8.0 0.00 0.00 0.00 51 1004.8
20260504190537 79 190 4.0 8.0 0.00 0.00 0.00 52 1004.8
20260504190034 79 167 3.0 9.0 0.00 0.00 0.00 53 1004.7
20260504185534 78 183 2.0 5.0 0.00 0.00 0.00 54 1004.6
20260504185032 78 188 2.0 6.0 0.00 0.00 0.00 53 1004.8
20260504184532 78 185 3.0 8.0 0.00 0.00 0.00 52 1004.9
20260504184031 78 159 4.0 8.0 0.00 0.00 0.00 52 1004.8
20260504183530 78 173 2.0 8.0 0.00 0.00 0.00 55 1004.8
20260504183030 77 174 3.0 10.0 0.00 0.00 0.00 52 1004.9
20260504182528 77 183 5.0 10.0 0.00 0.00 0.00 51 1005.1
20260504182027 77 185 3.0 7.0 0.00 0.00 0.00 52 1005.0
20260504181531 77 157 3.0 6.0 0.00 0.00 0.00 54 1005.1
20260504181027 77 175 3.0 6.0 0.00 0.00 0.00 55 1005.2
20260504180526 77 161 2.0 9.0 0.00 0.00 0.00 56 1005.2
20260504180026 77 232 3.0 9.0 0.00 0.00 0.00 52 1005.2
20260504175526 77 190 2.0 9.0 0.00 0.00 0.00 53 1005.4
20260504175024 77 165 3.0 6.0 0.00 0.00 0.00 52 1005.5
20260504174528 77 186 3.0 6.0 0.00 0.00 0.00 52 1005.5
20260504174024 77 174 3.0 10.0 0.00 0.00 0.00 52 1005.5
20260504173521 77 174 3.0 10.0 0.00 0.00 0.00 51 1005.6
20260504173021 77 162 3.0 10.0 0.00 0.00 0.00 53 1005.6
20260504172520 77 178 3.0 6.0 0.00 0.00 0.00 52 1005.7
20260504172019 77 188 3.0 6.0 0.00 0.00 0.00 52 1005.8
20260504171518 76 140 3.0 7.0 0.00 0.00 0.00 52 1005.8
20260504171017 76 183 4.0 7.0 0.00 0.00 0.00 52 1005.7
20260504170516 76 176 2.0 6.0 0.00 0.00 0.00 53 1005.7
20260504151046 71 201 3.0 6.0 0.00 0.00 0.00 56 1006.8
20260504150545 71 171 2.0 7.0 0.00 0.00 0.00 58 1006.9
20260504141033 66 175 3.0 6.0 0.00 0.00 0.00 62 1007.7
20260504140532 66 147 2.0 6.0 0.00 0.00 0.00 63 1007.7
20260504130528 63 162 1.0 4.0 0.00 0.00 0.00 66 1008.1